Regional Weather Roundup
Issued by NWS Charleston, SC

Current Version | Previous Version | Graphics & Text | Print | Product List | Glossary On
Versions: 1 2 3 4 5 6 7 8 9 10 11 12 13 14 15 16 17 18 19 20 21 22 23 24 25 26 27 28 29 30 31 32 33 34 35 36 37 38 39 40 41 42 43 44 45 46 47 48 49 50
000 ASUS42 KCHS 280028 RWRCHS REGIONAL WEATHER ROUNDUP NATIONAL WEATHER SERVICE CHARLESTON SC 800 PM EDT TUE SEP 27 2016 NOTE: "FAIR" INDICATES FEW OR NO CLOUDS BELOW 12,000 FEET WITH NO SIGNIFICANT WEATHER AND/OR OBSTRUCTIONS TO VISIBILITY. NOT ALL STATIONS ARE QUALITY CONTROLLED. USE DATA WITH CAUTION... ESPECIALLY DEWPOINT OBSERVATIONS. SCZ027-030-031-034>040-042>050-280100- ...SOUTHEAST SOUTH CAROLINA... CITY SKY/WX TMP DP RH WIND PRES REMARKS N CHARLESTON PTCLDY 77 68 73 S3 29.89R 6HR MIN TEMP: 76; 6HR MAX TEMP: 89; WATERFRONT PRK N/A 78 72 81 VRB3 29.87R MOUNT PLEASANT FAIR 73 72 94 CALM 29.89S JOHNS ISLAND FAIR 75 72 88 CALM 29.89S PINOPOLIS N/A 79 72 78 S5 29.81S MONCKS CORNER FAIR 75 70 83 CALM 29.89R SUMMERVILLE FAIR 75 75 100 CALM 29.90R BEAUFORT MCAS PTCLDY 78 74 87 CALM 29.89R 6HR MIN TEMP: 77; 6HR MAX TEMP: 90; 6HR PCP: 0.09; BEAUFORT ARPT FAIR 77 72 83 S3 29.89R HILTON HEAD IS PTCLDY 77 73 88 CALM 29.90R WALTERBORO CLOUDY 77 77 100 SE3 29.90R ALLENDALE FAIR 77 73 88 CALM 29.88R ...SOUTHERN MIDLANDS AND PEE DEE... CITY SKY/WX TMP DP RH WIND PRES REMARKS GEORGETOWN FAIR 72 70 94 CALM 29.90S KINGSTREE FAIR 73 70 88 CALM 29.89R ORANGEBURG PTCLDY 77 71 82 CALM 29.88R 6HR MIN TEMP: 77; 6HR MAX TEMP: 87; BARNWELL NOT AVBL AIKEN FAIR 73 64 73 S5 29.93R MANNING FAIR 73 72 94 CALM 29.88R COLUMBIA PTCLDY 82 69 64 CALM 29.87R 6HR MIN TEMP: 82; 6HR MAX TEMP: 89; 6HR PCP: TRACE; SUMTER MOCLDY 78 69 75 S3 29.86R 6HR MIN TEMP: 78; 6HR MAX TEMP: 88; FLORENCE PTCLDY 79 72 79 S3 29.88R 6HR MIN TEMP: 79; 6HR MAX TEMP: 86; MYRTLE BEACH PTCLDY 79 63 57 S7 29.90S N MYRTLE BEACH CLEAR 79 69 71 SE3 29.89R 6HR MIN TEMP: 78; 6HR MAX TEMP: 85; $$ GAZ063-065-086>088-099>101-113>116-118-119-134>141-150-280100- ...SOUTHEAST GEORGIA... CITY SKY/WX TMP DP RH WIND PRES REMARKS SAVANNAH ARPT CLOUDY 79 71 76 SE6 29.89R 6HR MIN TEMP: 79; 6HR MAX TEMP: 90; HUNTER AAF CLOUDY 77 76 96 CALM 29.87R 6HR MIN TEMP: 77; 6HR MAX TEMP: 87; FORT STEWART MOCLDY 78 72 81 CALM 29.87R 6HR MIN TEMP: 78; 6HR MAX TEMP: 88; STATESBORO MOCLDY 75 73 94 CALM 29.90R SYLVANIA NOT AVBL CLAXTON FAIR 76 76 99 CALM 29.90 ...CSRA...CENTRAL AND FAR SOUTHEAST GEORGIA... CITY SKY/WX TMP DP RH WIND PRES REMARKS THOMSON CLOUDY 78 73 85 CALM 29.92S AUGUSTA-BUSH CLEAR 75 67 76 S5 29.87R 6HR MIN TEMP: 75; 6HR MAX TEMP: 88; AUGUSTA-DANIEL PTCLDY 83 64 52 S8 29.89R SWAINSBORO FAIR 79 70 73 CALM 29.90F VIDALIA CLEAR 79 73 83 CALM 29.91R EASTMAN FAIR 78 60 54 CALM 29.92S HAZLEHURST FAIR 78 71 80 CALM 29.89S ALMA PTCLDY 75 72 90 CALM 29.89S 6HR MIN TEMP: 75; 6HR MAX TEMP: 89; WAYCROSS CLEAR 81 75 80 CALM 29.89S JESUP FAIR 79 77 94 CALM 29.89S BAXLEY FAIR 79 75 89 CALM 29.89S BRUNSWICK CLOUDY 79 73 83 CALM 29.90S SAINT SIMONS PTCLDY 79 71 76 E5 29.89S 6HR MIN TEMP: 78; 6HR MAX TEMP: 84; $$ SCZ027-028-034-036>038-045-046-048>050-GAZ119-141-280100- ...LAKE AND SUPPLEMENTAL COASTAL OBSERVATIONS... STATION/POSITION TIME TEMP WIND PRES WAVE SWELL AIR SEA DIR/SP/G HT/PER HT/PER/DIR (UTC) (F) (DEG/KT/KT) (MB) (FT/S) (FT/S/D) WINYAH BAY 2330 79 160/ 4 1011.0S LAKE MURRAY 2330 82 110/ 2/ 3 1010.8R ACE BASIN NERRS 2345 76 CALM 1012.0S FORT PULASKI 0000 78 81 170/ 1/ 2 1012.6 SAPELO ISLAND 0000 78 140/ 2 1012.0 $$ ANZ835-935-AMZ111-154-330-350-352-354-370-450-454-472-280100- ...C-MAN AND BUOY OBSERVATIONS... STATION/POSITION TIME TEMP WIND PRES WAVE SWELL AIR SEA DIR/SP/G HT/PER HT/PER/DIR (UTC) (F) (DEG/KT/KT) (MB) (FT/S) (FT/S/D) BUOY 41004 2350 80 82 80/ 4/ 6 1011.4R 3/ 7 2/ 80/ 7 BUOY 41008 2350 80 82 160/ 2/ 4 1011.9S 2/13 2/110/13 FOLLY BEACH CMAN 0000 79 150/ 6/ 7 1012.1F CAPERS NEARSHORE 0008 79 82 160/ 6/ 8 1011.8R FRIPP NEARSHORE 0008 79 81 140/ 8/ 8 1012.0S STATION/POSITION TIME TEMP WIND PRES WAVE SWELL AIR SEA DIR/SP/G HT/PER HT/PER/DIR (UTC) (F) (DEG/KT/KT) (MB) (FT/S) (FT/S/D) 5E ST. MARYS GA 2301 83 N/A 2/13 2/110/13 FRYING PAN BUOY 0010 80 82 20/ 6/ 10 1011.8 BUOY 41025 2350 78 84 70/ 10/ 12 1011.5R 5/ 7 5/120/ 7 CAPE LOOKOUT NC 0000 77 60/ 8/ 9 1012.0R BUOY 41002 2350 81 83 240/ 12/ 14 1011.5S 5/12 5/ 70/12 BUOY 41010 NOT AVBL ST AUGUSTINE FL 0000 81 85 40/ 7/ 8 1013.1R $$

USA.gov is the U.S. government's official web portal to all federal, state and local government web resources and services.